M I D A S
Marine Information and Data Acquisition System
Tripno 802 of the Zeeleeuw from 2004-11-05 12:23:18 to 2004-11-05 15:29:03
Back to CruiseResearch ActivitiesStationsMapUnderway DataData graphs

EquipmentUnitsComments
TimeDGPSUTC
LatitudeDGPSDM.mWGS84
LongitudeDGPSDM.mWGS84
SpeedMeteo Stationm/sRelative wind speed
DirectionMeteo StationdegRelative wind direction
TemperatureMeteo Stationdeg CelciusAir temperature
PressureMeteo StationPaAtmospheric pressure
HumidityMeteo Station%Relative humidity
Missing or incorrect values are displayed as -999
Metereological data collected by the RV Zeeleeuw from 2004-11-05 08:18:08 to 2004-11-05 15:31:42
                                                                                    Next 1000 lines
Time Latitude Longitude Speed Direction Temperature Pressure Humidity
2004-11-05 08:18:18 51°13.596 2°56.112 6.1 211 11.4 102790 69
2004-11-05 08:18:24 51°13.596 2°56.112 6.6 207 11.4 102790 68
2004-11-05 08:18:28 51°13.595 2°56.112 6.6 215 11.4 102790 68
2004-11-05 08:18:34 51°13.596 2°56.11 7.2 215 11.4 102790 69
2004-11-05 08:18:38 51°13.596 2°56.108 6.2 209 11.4 102790 69
2004-11-05 08:18:43 51°13.597 2°56.104 5.5 215 11.4 102790 69
2004-11-05 08:18:48 51°13.598 2°56.1 8.7 211 11.4 102790 69
2004-11-05 08:18:52 51°13.599 2°56.096 7.8 211 11.4 102790 69
2004-11-05 08:19:00 51°13.601 2°56.088 6.2 206 11.4 102790 69
2004-11-05 08:19:04 51°13.602 2°56.083 7.4 208 11.3 102790 69
2004-11-05 08:19:10 51°13.604 2°56.076 6.8 210 11.3 102790 69
2004-11-05 08:19:14 51°13.605 2°56.071 7.9 207 11.3 102790 69
2004-11-05 08:19:20 51°13.607 2°56.063 8.2 198 11.3 102790 69
2004-11-05 08:19:24 51°13.608 2°56.057 8.7 216 11.3 102790 69
2004-11-05 08:19:30 51°13.61 2°56.048 8.3 184 11.3 102790 69
2004-11-05 08:19:34 51°13.611 2°56.042 9.2 199 11.3 102790 70
2004-11-05 08:19:39 51°13.613 2°56.035 8.1 221 11.3 102790 70
2004-11-05 08:19:42 51°13.615 2°56.03 9.4 201 11.3 102790 69
2004-11-05 08:19:50 51°13.619 2°56.018 6.9 197 11.3 102790 69
2004-11-05 08:19:54 51°13.621 2°56.011 8.2 200 11.3 102790 69
2004-11-05 08:19:58 51°13.623 2°56.005 7.5 193 11.3 102790 69
2004-11-05 08:20:02 51°13.625 2°55.998 8.2 202 11.3 102790 69
2004-11-05 08:20:10 51°13.63 2°55.985 7.6 198 11.3 102790 69
2004-11-05 08:20:14 51°13.633 2°55.979 8.2 194 11.3 102790 68
2004-11-05 08:20:20 51°13.636 2°55.969 7 188 11.3 102790 68
2004-11-05 08:20:22 51°13.638 2°55.966 7.6 179 11.4 102790 68
2004-11-05 08:20:30 51°13.643 2°55.953 6.6 189 11.4 102790 68
2004-11-05 08:20:34 51°13.646 2°55.946 7.2 195 11.5 102790 68
2004-11-05 08:20:40 51°13.65 2°55.936 8.6 203 11.5 102790 68
2004-11-05 08:20:42 51°13.652 2°55.932 9.8 203 11.5 102790 69
2004-11-05 08:20:48 51°13.656 2°55.922 10.1 197 11.5 102790 69
2004-11-05 08:20:54 51°13.66 2°55.911 9.1 197 11.7 102790 69
2004-11-05 08:21:00 51°13.664 2°55.9 10.4 198 11.7 102790 69
2004-11-05 08:21:02 51°13.666 2°55.897 8.2 197 11.7 102780 66
2004-11-05 08:21:10 51°13.671 2°55.882 8.9 200 11.7 102780 66
2004-11-05 08:21:14 51°13.674 2°55.875 9.1 204 11.7 102780 66
2004-11-05 08:21:18 51°13.677 2°55.868 10.8 205 11.7 102780 66
2004-11-05 08:21:22 51°13.68 2°55.861 10.8 206 11.6 102780 66
2004-11-05 08:21:30 51°13.684 2°55.847 9 207 11.6 102780 66
2004-11-05 08:21:34 51°13.686 2°55.84 8.7 202 11.6 102780 66
2004-11-05 08:21:38 51°13.689 2°55.833 7.3 199 11.6 102780 66
2004-11-05 08:21:42 51°13.691 2°55.826 7.7 199 11.5 102790 66
2004-11-05 08:21:50 51°13.695 2°55.812 9.4 207 11.5 102790 66
2004-11-05 08:21:55 51°13.698 2°55.802 8.4 217 11.5 102790 66
2004-11-05 08:21:58 51°13.699 2°55.796 10.3 206 11.5 102790 66
2004-11-05 08:22:04 51°13.702 2°55.784 11.1 211 11.5 102790 67
2004-11-05 08:22:10 51°13.705 2°55.772 12.7 211 11.5 102790 67
2004-11-05 08:22:14 51°13.707 2°55.764 8 206 11.5 102790 67
2004-11-05 08:22:20 51°13.709 2°55.754 8.7 225 11.5 102790 67
2004-11-05 08:22:22 51°13.71 2°55.751 7.5 232 11.4 102790 67
2004-11-05 08:22:30 51°13.711 2°55.742 9.2 238 11.4 102790 67
2004-11-05 08:22:34 51°13.711 2°55.739 7.4 243 11.4 102790 67
2004-11-05 08:22:38 51°13.711 2°55.738 4.3 253 11.4 102790 67
2004-11-05 08:22:44 51°13.712 2°55.739 4.8 252 11.4 102790 67
2004-11-05 08:22:48 51°13.712 2°55.74 6.1 249 11.4 102790 67
2004-11-05 08:22:54 51°13.713 2°55.744 6.2 265 11.4 102780 68
2004-11-05 08:22:57 51°13.714 2°55.746 6.8 299 11.4 102780 68
2004-11-05 08:23:03 51°13.715 2°55.75 8.7 281 11.4 102790 68
2004-11-05 08:23:08 51°13.716 2°55.753 8.3 281 11.4 102790 68
2004-11-05 08:23:12 51°13.716 2°55.754 9.8 278 11.4 102790 68
2004-11-05 08:23:18 51°13.716 2°55.755 8.5 272 11.4 102790 68
2004-11-05 08:23:24 51°13.715 2°55.754 7.7 278 11.4 102790 68
2004-11-05 08:23:26 51°13.715 2°55.754 6.8 276 11.4 102790 68
2004-11-05 08:23:34 51°13.713 2°55.751 5.9 266 11.4 102790 68
2004-11-05 08:23:38 51°13.712 2°55.75 9.1 279 11.4 102790 68
2004-11-05 08:23:42 51°13.711 2°55.749 9.9 284 11.4 102780 68
2004-11-05 08:23:48 51°13.71 2°55.748 7 282 11.4 102780 68
2004-11-05 08:23:54 51°13.71 2°55.749 7.4 305 11.4 102790 68
2004-11-05 08:23:58 51°13.71 2°55.751 8.4 297 11.4 102790 68
2004-11-05 08:24:04 51°13.712 2°55.754 7.8 298 11.4 102790 68
2004-11-05 08:24:10 51°13.714 2°55.756 7.4 310 11.4 102790 68
2004-11-05 08:24:14 51°13.716 2°55.758 8.8 305 11.3 102790 68
2004-11-05 08:24:18 51°13.718 2°55.76 8.1 307 11.3 102790 68
2004-11-05 08:24:22 51°13.72 2°55.762 8.2 312 11.3 102770 68
2004-11-05 08:24:26 51°13.721 2°55.763 8 231 11.3 102770 68
2004-11-05 08:24:34 51°13.722 2°55.764 8.3 316 11.3 102780 68
2004-11-05 08:24:38 51°13.722 2°55.765 7.7 313 11.3 102780 68
2004-11-05 08:24:44 51°13.721 2°55.765 7.8 310 11.3 102780 68
2004-11-05 08:24:48 51°13.719 2°55.765 7.5 300 11.3 102780 68
2004-11-05 08:24:54 51°13.717 2°55.764 8 314 11.3 102780 68
2004-11-05 08:24:58 51°13.716 2°55.765 6.6 313 11.3 102780 68
2004-11-05 08:25:04 51°13.716 2°55.766 5.8 39 11.3 102780 69
2004-11-05 08:25:10 51°13.717 2°55.766 7.5 229 11.3 102780 69
2004-11-05 08:25:14 51°13.719 2°55.767 7.6 315 11.3 102780 69
2004-11-05 08:25:19 51°13.721 2°55.768 7.2 320 11.3 102780 69
2004-11-05 08:25:22 51°13.722 2°55.768 7 333 11.3 102780 69
2004-11-05 08:25:28 51°13.724 2°55.768 6.7 327 11.3 102780 69
2004-11-05 08:25:34 51°13.723 2°55.769 7.1 328 11.3 102770 69
2004-11-05 08:25:39 51°13.723 2°55.77 5.3 343 11.3 102770 69
2004-11-05 08:25:44 51°13.721 2°55.771 5.4 324 11.4 102780 69
2004-11-05 08:25:48 51°13.719 2°55.772 5.5 342 11.4 102780 69
2004-11-05 08:25:52 51°13.717 2°55.772 5.9 320 11.3 102770 69
2004-11-05 08:25:59 51°13.715 2°55.774 5.5 327 11.3 102770 69
2004-11-05 08:26:02 51°13.715 2°55.774 5.2 329 11.3 102780 69
2004-11-05 08:26:10 51°13.716 2°55.773 7 1 11.3 102780 69
2004-11-05 08:26:14 51°13.718 2°55.772 6.3 341 11.3 102780 69
2004-11-05 08:26:20 51°13.721 2°55.769 9.6 13 11.3 102780 69
2004-11-05 08:26:22 51°13.723 2°55.767 8.8 6 11.3 102780 69
2004-11-05 08:26:28 51°13.727 2°55.762 6.7 4 11.3 102780 69
2004-11-05 08:26:34 51°13.732 2°55.755 6.9 2 11.3 102770 69
2004-11-05 08:26:38 51°13.736 2°55.75 10.4 5 11.3 102770 69
2004-11-05 08:26:44 51°13.743 2°55.741 10.4 13 11.3 102770 69
2004-11-05 08:26:46 51°13.745 2°55.738 10.1 7 11.3 102770 69
2004-11-05 08:27:02 51°13.763 2°55.711 11.2 14 11.3 102770 69
2004-11-05 08:27:08 51°13.771 2°55.7 11.6 12 11.3 102770 69
2004-11-05 08:27:14 51°13.78 2°55.689 12.1 15 11.3 102770 69
2004-11-05 08:27:19 51°13.787 2°55.68 12.2 11 11.3 102770 69
2004-11-05 08:27:23 51°13.793 2°55.672 12.1 6 11.3 102790 69
2004-11-05 08:27:30 51°13.805 2°55.659 11 354 11.3 102790 69
2004-11-05 08:27:34 51°13.812 2°55.652 9.2 360 11.3 102780 69
2004-11-05 08:27:39 51°13.821 2°55.643 11.4 5 11.3 102780 69
2004-11-05 08:27:44 51°13.831 2°55.634 11.6 3 11.3 102780 69
2004-11-05 08:27:57 51°13.858 2°55.614 12.2 354 11.3 102780 69
2004-11-05 08:28:02 51°13.869 2°55.606 11.6 351 11.3 102790 69
2004-11-05 08:28:06 51°13.878 2°55.599 13 351 11.3 102790 69
2004-11-05 08:28:12 51°13.891 2°55.59 12.1 349 11.3 102790 69
2004-11-05 08:28:16 51°13.9 2°55.583 11.2 340 11.3 102790 69
2004-11-05 08:28:22 51°13.914 2°55.574 10.2 349 11.2 102790 69
2004-11-05 08:28:26 51°13.923 2°55.567 10.9 339 11.2 102790 69
2004-11-05 08:28:32 51°13.937 2°55.558 9.2 4 11.3 102780 69
2004-11-05 08:28:36 51°13.946 2°55.551 10.7 350 11.3 102780 69
2004-11-05 08:28:42 51°13.96 2°55.541 11.7 357 11.3 102780 70
2004-11-05 08:28:47 51°13.971 2°55.533 12.3 353 11.3 102780 70
2004-11-05 08:28:52 51°13.983 2°55.525 12.9 1 11.3 102780 70
2004-11-05 08:28:57 51°13.995 2°55.517 10.6 344 11.3 102780 70
2004-11-05 08:29:02 51°14.006 2°55.508 12.9 354 11.3 102790 70
2004-11-05 08:29:06 51°14.015 2°55.501 11.5 356 11.3 102790 70
2004-11-05 08:29:10 51°14.025 2°55.495 12.1 347 11.3 102780 70
2004-11-05 08:29:16 51°14.039 2°55.485 12.2 345 11.3 102780 70
2004-11-05 08:29:22 51°14.052 2°55.474 14.3 353 11.3 102780 70
2004-11-05 08:29:26 51°14.062 2°55.467 14.1 349 11.3 102780 70
2004-11-05 08:29:32 51°14.076 2°55.457 11.8 354 11.2 102790 70
2004-11-05 08:29:38 51°14.09 2°55.446 13.3 348 11.2 102790 70
2004-11-05 08:29:42 51°14.1 2°55.439 14.3 351 11.2 102790 70
2004-11-05 08:29:47 51°14.112 2°55.43 15.4 348 11.2 102790 70
2004-11-05 08:29:52 51°14.125 2°55.421 15.5 351 11.2 102790 70
2004-11-05 08:29:56 51°14.135 2°55.412 15.6 353 11.2 102790 70
2004-11-05 08:30:02 51°14.15 2°55.399 13.7 353 11.2 102780 70
2004-11-05 08:30:04 51°14.155 2°55.394 15 353 11.2 102780 70
2004-11-05 08:30:12 51°14.175 2°55.375 14.8 352 11.2 102790 69
2004-11-05 08:30:15 51°14.182 2°55.367 14.9 359 11.2 102790 69
2004-11-05 08:30:20 51°14.195 2°55.355 14.2 358 11.2 102780 69
2004-11-05 08:30:27 51°14.212 2°55.336 15.9 357 11.2 102780 69
2004-11-05 08:30:32 51°14.224 2°55.32 17 355 11.2 102780 70
2004-11-05 08:30:44 51°14.251 2°55.282 15.1 360 11.2 102780 70
2004-11-05 08:30:48 51°14.26 2°55.268 14.7 5 11.2 102780 70
2004-11-05 08:30:54 51°14.271 2°55.247 15.2 1 11.2 102780 71
2004-11-05 08:30:58 51°14.279 2°55.232 16.9 5 11.2 102780 71
2004-11-05 08:31:04 51°14.292 2°55.21 16.5 3 11.2 102770 70
2004-11-05 08:31:09 51°14.303 2°55.191 15.6 5 11.2 102770 70
2004-11-05 08:31:14 51°14.31 2°55.172 15.3 5 11.2 102760 71
2004-11-05 08:31:18 51°14.318 2°55.156 14.3 6 11.2 102760 71
2004-11-05 08:31:24 51°14.328 2°55.132 16.6 10 11.2 102780 71
2004-11-05 08:31:30 51°14.339 2°55.107 16.4 7 11.2 102780 71
2004-11-05 08:31:34 51°14.345 2°55.089 14.7 3 11.2 102780 70
2004-11-05 08:31:38 51°14.352 2°55.071 16.8 11 11.2 102780 70
2004-11-05 08:31:42 51°14.359 2°55.054 14.7 13 11.2 102780 70
2004-11-05 08:31:50 51°14.373 2°55.021 17.2 10 11.2 102780 70
2004-11-05 08:31:54 51°14.38 2°55.005 16.3 9 11.2 102790 70
2004-11-05 08:31:58 51°14.387 2°54.988 16.9 10 11.2 102790 70
2004-11-05 08:32:04 51°14.398 2°54.964 14.1 10 11.2 102780 70
2004-11-05 08:32:08 51°14.406 2°54.948 14.1 2 11.2 102780 70
2004-11-05 08:32:14 51°14.419 2°54.925 16.7 3 11.2 102800 70
2004-11-05 08:32:18 51°14.428 2°54.91 15.1 2 11.2 102800 70
2004-11-05 08:32:24 51°14.441 2°54.887 16.1 3 11.2 102790 69
2004-11-05 08:32:30 51°14.455 2°54.862 16.3 6 11.2 102790 69
2004-11-05 08:32:34 51°14.463 2°54.845 17.3 7 11.2 102780 70
2004-11-05 08:32:38 51°14.471 2°54.827 17.3 9 11.2 102780 70
2004-11-05 08:32:44 51°14.483 2°54.801 15.3 9 11.2 102780 71
2004-11-05 08:32:48 51°14.49 2°54.783 15.3 10 11.2 102780 71
2004-11-05 08:32:58 51°14.508 2°54.736 15.6 16 11.2 102790 71
2004-11-05 08:33:04 51°14.519 2°54.707 15.5 16 11.2 102770 70
2004-11-05 08:33:10 51°14.529 2°54.677 15.5 14 11.2 102770 70
2004-11-05 08:33:14 51°14.535 2°54.656 17.4 19 11.2 102800 70
2004-11-05 08:33:20 51°14.544 2°54.625 16.3 21 11.2 102800 70
2004-11-05 08:33:24 51°14.55 2°54.603 15.7 16 11.2 102770 70
2004-11-05 08:33:30 51°14.557 2°54.572 16.2 18 11.2 102770 70
2004-11-05 08:33:34 51°14.563 2°54.551 15.2 16 11.2 102770 72
2004-11-05 08:33:40 51°14.57 2°54.519 14.3 12 11.2 102770 72
2004-11-05 08:33:44 51°14.575 2°54.498 14.8 16 11.2 102780 72
2004-11-05 08:33:50 51°14.583 2°54.466 16.9 14 11.2 102780 72
2004-11-05 08:33:54 51°14.588 2°54.445 14.2 14 11.2 102780 73
2004-11-05 08:34:00 51°14.595 2°54.413 15.1 15 11.2 102780 73
2004-11-05 08:34:04 51°14.6 2°54.393 17.4 15 11.3 102770 73
2004-11-05 08:34:10 51°14.608 2°54.36 16.4 16 11.3 102770 73
2004-11-05 08:34:14 51°14.613 2°54.339 15.9 19 11.3 102790 73
2004-11-05 08:34:20 51°14.621 2°54.305 17.5 17 11.3 102790 73
2004-11-05 08:34:22 51°14.624 2°54.294 15.5 12 11.2 102770 73
2004-11-05 08:34:30 51°14.635 2°54.249 16.6 15 11.2 102770 73
2004-11-05 08:34:34 51°14.641 2°54.227 17.7 15 11.2 102760 71
2004-11-05 08:34:40 51°14.65 2°54.195 17.9 17 11.2 102760 71
2004-11-05 08:34:44 51°14.657 2°54.173 17.3 17 11.2 102770 71
2004-11-05 08:34:50 51°14.666 2°54.141 17.5 16 11.2 102770 71
2004-11-05 08:34:54 51°14.673 2°54.12 16.7 16 11.2 102750 71
2004-11-05 08:34:58 51°14.679 2°54.099 17.3 17 11.2 102750 71
2004-11-05 08:35:06 51°14.693 2°54.056 17.9 15 11.2 102750 71
2004-11-05 08:35:10 51°14.7 2°54.036 17.4 17 11.2 102750 71
2004-11-05 08:35:14 51°14.707 2°54.014 16.3 16 11.2 102750 71
2004-11-05 08:35:18 51°14.714 2°53.994 16.2 16 11.2 102750 71
2004-11-05 08:35:24 51°14.724 2°53.962 14.9 15 11.2 102750 70
2004-11-05 08:35:30 51°14.733 2°53.931 14 16 11.2 102750 70
2004-11-05 08:35:34 51°14.739 2°53.911 14.2 15 11.2 102750 70
2004-11-05 08:35:40 51°14.749 2°53.88 15.3 15 11.2 102750 70
2004-11-05 08:35:44 51°14.756 2°53.859 17.2 11 11.2 102760 70
2004-11-05 08:35:50 51°14.766 2°53.829 17 15 11.2 102760 70
2004-11-05 08:35:54 51°14.773 2°53.808 15 12 11.2 102750 70
2004-11-05 08:36:00 51°14.782 2°53.778 17.1 16 11.2 102750 70
2004-11-05 08:36:04 51°14.789 2°53.757 16.1 14 11.2 102760 70
2004-11-05 08:36:10 51°14.799 2°53.726 17.2 13 11.2 102760 70
2004-11-05 08:36:14 51°14.807 2°53.705 16 16 11.2 102750 71
2004-11-05 08:36:20 51°14.818 2°53.673 17.4 15 11.2 102750 71
2004-11-05 08:36:24 51°14.825 2°53.653 16.2 13 11.2 102760 71
2004-11-05 08:36:30 51°14.835 2°53.622 15.6 9 11.2 102760 71
2004-11-05 08:36:34 51°14.842 2°53.601 14.8 13 11.2 102760 70
2004-11-05 08:36:48 51°14.866 2°53.529 16.2 12 11.2 102760 70
2004-11-05 08:36:52 51°14.873 2°53.508 16.4 15 11.2 102760 71
2004-11-05 08:37:04 51°14.893 2°53.446 15.9 9 11.2 102750 72
2004-11-05 08:37:08 51°14.899 2°53.426 16 9 11.2 102750 72
2004-11-05 08:37:14 51°14.91 2°53.395 17 10 11.2 102760 71
2004-11-05 08:37:18 51°14.916 2°53.375 15.6 12 11.2 102760 71
2004-11-05 08:37:22 51°14.924 2°53.355 16.4 10 11.2 102760 72
2004-11-05 08:37:36 51°14.949 2°53.281 15.5 11 11.2 102760 72
2004-11-05 08:37:40 51°14.955 2°53.261 16.6 10 11.2 102760 71
2004-11-05 08:37:46 51°14.965 2°53.231 15.5 12 11.2 102760 71
2004-11-05 08:37:50 51°14.972 2°53.21 14.9 10 11.2 102770 72
2004-11-05 08:37:56 51°14.983 2°53.179 14.1 13 11.2 102770 72
2004-11-05 08:38:00 51°14.991 2°53.159 14.9 14 11.2 102760 72
2004-11-05 08:38:06 51°15.001 2°53.128 15.2 14 11.2 102760 72
2004-11-05 08:38:10 51°15.008 2°53.107 17.7 13 11.2 102770 72
2004-11-05 08:38:16 51°15.019 2°53.077 17.1 13 11.2 102770 72
2004-11-05 08:38:22 51°15.03 2°53.046 17.4 12 11.2 102760 73
2004-11-05 08:38:24 51°15.033 2°53.036 17.4 14 11.2 102760 73
2004-11-05 08:38:30 51°15.044 2°53.005 17.3 17 11.2 102750 73
2004-11-05 08:38:34 51°15.05 2°52.984 17.3 16 11.2 102750 73
2004-11-05 08:38:40 51°15.059 2°52.953 16.3 14 11.2 102760 72
2004-11-05 08:38:46 51°15.069 2°52.922 17   11.2 102760 72
2004-11-05 08:38:50 51°15.075 2°52.901 16.9 16 11.2 102760 72
2004-11-05 08:38:56 51°15.084 2°52.87 15.5 16 11.2 102760 72
2004-11-05 08:39:00 51°15.09 2°52.851 17.3 12 11.2 102760 72
2004-11-05 08:39:06 51°15.099 2°52.82 17.5 11 11.2 102760 72
2004-11-05 08:39:10 51°15.105 2°52.8 15.3 11 11.2 102760 72
2004-11-05 08:39:14 51°15.111 2°52.779 16.7 15 11.2 102760 72
2004-11-05 08:39:20 51°15.121 2°52.748 16.6 13 11.2 102760 72
2004-11-05 08:39:26 51°15.131 2°52.716 16 16 11.2 102760 72
2004-11-05 08:39:30 51°15.138 2°52.694 17.4 16 11.2 102760 73
2004-11-05 08:39:34 51°15.145 2°52.673 15.7 16 11.2 102760 73
2004-11-05 08:39:40 51°15.155 2°52.641 17.3 9 11.2 102760 72
2004-11-05 08:39:44 51°15.162 2°52.62 16.8 10 11.2 102760 72
2004-11-05 08:39:50 51°15.171 2°52.589 15.6 12 11.2 102760 72
2004-11-05 08:39:54 51°15.178 2°52.569 15.7 15 11.2 102760 72
2004-11-05 08:40:00 51°15.188 2°52.538 16.3 16 11.2 102760 73
2004-11-05 08:40:06 51°15.198 2°52.505 14.3 23 11.2 102760 73
2004-11-05 08:40:10 51°15.204 2°52.485 15.2 16 11.2 102760 73
2004-11-05 08:40:14 51°15.209 2°52.464 15.8 17 11.2 102760 73
2004-11-05 08:40:20 51°15.218 2°52.433 16.8 17 11.2 102760 73
2004-11-05 08:40:26 51°15.226 2°52.4 16 15 11.2 102760 73
2004-11-05 08:40:30 51°15.231 2°52.378 15.9 15 11.2 102760 74
2004-11-05 08:40:36 51°15.24 2°52.345 16.8 15 11.2 102760 74
2004-11-05 08:40:40 51°15.246 2°52.323 15 19 11.2 102760 73
2004-11-05 08:40:46 51°15.253 2°52.29 15.3 16 11.2 102760 73
2004-11-05 08:40:50 51°15.258 2°52.268 16.1 15 11.2 102760 72
2004-11-05 08:40:56 51°15.267 2°52.234 15.9 14 11.2 102760 72
2004-11-05 08:41:00 51°15.272 2°52.212 14.9 17 11.2 102760 72
2004-11-05 08:41:06 51°15.28 2°52.178 14.5 17 11.2 102760 72
2004-11-05 08:41:10 51°15.285 2°52.156 15.4 24 11.2 102750 73
2004-11-05 08:41:14 51°15.289 2°52.134 16.3 20 11.2 102750 73
2004-11-05 08:41:22 51°15.298 2°52.089 16.2 17 11.2 102760 73
2004-11-05 08:41:28 51°15.304 2°52.055 16.2 26 11.2 102760 73
2004-11-05 08:41:34 51°15.309 2°52.021 16.2 19 11.2 102760 73
2004-11-05 08:41:38 51°15.313 2°51.998 16.5 26 11.2 102760 73
2004-11-05 08:41:44 51°15.317 2°51.963 16.2 20 11.2 102750 73
2004-11-05 08:41:46 51°15.319 2°51.951 18.4 21 11.2 102750 73
2004-11-05 08:41:54 51°15.324 2°51.905 15.4 23 11.2 102760 74
2004-11-05 08:41:58 51°15.327 2°51.882 18.2 26 11.2 102760 74
2004-11-05 08:42:04 51°15.33 2°51.847 17.9 28 11.2 102750 73
2004-11-05 08:42:08 51°15.333 2°51.823 15.4 21 11.2 102750 73
2004-11-05 08:42:14 51°15.336 2°51.788 15.8 18 11.2 102760 73
2004-11-05 08:42:18 51°15.338 2°51.765 16.7 21 11.2 102760 73
2004-11-05 08:42:22 51°15.34 2°51.742 16.8 19 11.2 102740 73
2004-11-05 08:42:28 51°15.343 2°51.706 16.1 20 11.2 102740 73
2004-11-05 08:42:34 51°15.346 2°51.672 16.3 21 11.2 102740 73
2004-11-05 08:42:38 51°15.349 2°51.648 17.8 23 11.2 102740 73
2004-11-05 08:42:44 51°15.352 2°51.613 18.3 22 11.2 102750 73
2004-11-05 08:42:48 51°15.354 2°51.59 17.2 25 11.2 102750 73
2004-11-05 08:42:54 51°15.357 2°51.555 17.5 20 11.2 102760 74
2004-11-05 08:42:58 51°15.359 2°51.531 17.6 23 11.2 102760 74
2004-11-05 08:43:04 51°15.362 2°51.496 16.6 25 11.2 102750 73
2004-11-05 08:43:08 51°15.364 2°51.473 14.5 22 11.2 102750 73
2004-11-05 08:43:14 51°15.367 2°51.438 16.8 19 11.2 102750 72
2004-11-05 08:43:18 51°15.369 2°51.416 16.8 23 11.2 102750 72
2004-11-05 08:43:24 51°15.373 2°51.382 16.6 21 11.2 102750 72
2004-11-05 08:43:26 51°15.374 2°51.37 16.6 24 11.2 102750 72
2004-11-05 08:43:34 51°15.379 2°51.324 17.5 22 11.2 102750 72
2004-11-05 08:43:38 51°15.381 2°51.301 17 24 11.2 102750 72
2004-11-05 08:43:44 51°15.385 2°51.266 16.5 22 11.2 102760 73
2004-11-05 08:43:48 51°15.387 2°51.243 18.1 24 11.2 102760 73
2004-11-05 08:43:53 51°15.391 2°51.213 18.2 24 11.2 102750 72
2004-11-05 08:43:58 51°15.394 2°51.185 16.3 24 11.2 102750 72
2004-11-05 08:44:04 51°15.397 2°51.15 17.1 21 11.2 102750 72
2004-11-05 08:44:08 51°15.4 2°51.126 16.6 26 11.2 102750 72
2004-11-05 08:44:14 51°15.403 2°51.092 16.3 26 11.2 102760 72
2004-11-05 08:44:20 51°15.406 2°51.057 17.6 28 11.2 102760 72
2004-11-05 08:44:22 51°15.407 2°51.046 17.2 25 11.2 102750 71
2004-11-05 08:44:28 51°15.41 2°51.012 16.7 25 11.2 102750 71
2004-11-05 08:44:34 51°15.414 2°50.977 17 26 11.2 102760 73
2004-11-05 08:44:38 51°15.417 2°50.953 16.2 27 11.2 102760 73
2004-11-05 08:44:44 51°15.421 2°50.919 16.4 28 11.2 102740 72
2004-11-05 08:44:48 51°15.423 2°50.896 16.4 30 11.2 102740 72
2004-11-05 08:44:54 51°15.427 2°50.86 18.1 29 11.2 102750 71
2004-11-05 08:44:58 51°15.43 2°50.837 16.5 31 11.2 102750 71
2004-11-05 08:45:04 51°15.433 2°50.802 16.6 28 11.2 102750 71
2004-11-05 08:45:08 51°15.436 2°50.778 16.7 26 11.2 102750 71
2004-11-05 08:45:14 51°15.44 2°50.743 17 29 11.2 102740 71
2004-11-05 08:45:18 51°15.442 2°50.719 17 30 11.2 102740 71
2004-11-05 08:45:24 51°15.446 2°50.685 15.7 28 11.2 102740 71
2004-11-05 08:45:28 51°15.448 2°50.662 14.3 27 11.2 102740 71
2004-11-05 08:45:32 51°15.45 2°50.639 16.5 25 11.2 102750 71
2004-11-05 08:45:38 51°15.455 2°50.604 15.7 27 11.2 102750 71
2004-11-05 08:45:42 51°15.458 2°50.581 16.1 24 11.2 102740 72
2004-11-05 08:45:48 51°15.462 2°50.546 17.5 25 11.2 102740 72
2004-11-05 08:45:54 51°15.467 2°50.511 16.9 27 11.2 102740 72
2004-11-05 08:45:58 51°15.469 2°50.488 16.6 21 11.2 102740 72
2004-11-05 08:46:04 51°15.474 2°50.454 17.3 18 11.3 102760 73
2004-11-05 08:46:06 51°15.475 2°50.443 18 19 11.3 102760 73
2004-11-05 08:46:14 51°15.482 2°50.397 18.1 25 11.3 102750 73
2004-11-05 08:46:18 51°15.484 2°50.374 17.6 21 11.3 102750 73
2004-11-05 08:46:24 51°15.489 2°50.339 17.5 23 11.3 102760 73
2004-11-05 08:46:27 51°15.491 2°50.321 17.1 21 11.3 102760 73
2004-11-05 08:46:33 51°15.496 2°50.287 16.7 21 11.3 102760 73
2004-11-05 08:46:38 51°15.5 2°50.258 16.3 20 11.3 102760 73
2004-11-05 08:46:44 51°15.504 2°50.223 14.2 16 11.2 102750 73
2004-11-05 08:46:48 51°15.507 2°50.2 18 22 11.2 102750 73
2004-11-05 08:46:52 51°15.51 2°50.178 17.7 17 11.3 102760 73
2004-11-05 08:46:58 51°15.513 2°50.144 19.2 21 11.3 102760 73
2004-11-05 08:47:02 51°15.516 2°50.121 16.2 23 11.3 102760 74
2004-11-05 08:47:06 51°15.519 2°50.098 17.3 22 11.3 102760 74
2004-11-05 08:47:14 51°15.524 2°50.053 17.1 22 11.3 102750 73
2004-11-05 08:47:18 51°15.527 2°50.03 16.7 19 11.3 102750 73
2004-11-05 08:47:24 51°15.532 2°49.996 18.1 21 11.2 102760 72
2004-11-05 08:47:27 51°15.534 2°49.979 17.4 18 11.2 102760 72
2004-11-05 08:47:34 51°15.539 2°49.94 16.7 26 11.2 102760 72
2004-11-05 08:47:40 51°15.543 2°49.905 16.6 23 11.2 102760 72
2004-11-05 08:47:42 51°15.544 2°49.894 16.8 22 11.2 102760 72
2004-11-05 08:47:50 51°15.55 2°49.848 16.5 23 11.2 102760 72
2004-11-05 08:47:54 51°15.554 2°49.825 16.1 18 11.2 102760 72
2004-11-05 08:47:58 51°15.557 2°49.802 17.7 18 11.2 102760 72
2004-11-05 08:48:04 51°15.561 2°49.768 16.4 23 11.2 102760 71
2004-11-05 08:48:08 51°15.564 2°49.744 16.6 17 11.2 102760 71
2004-11-05 08:48:14 51°15.569 2°49.709 15.6 19 11.2 102760 72
2004-11-05 08:48:18 51°15.572 2°49.686 17.4 21 11.2 102760 72
2004-11-05 08:48:22 51°15.575 2°49.663 16 20 11.2 102760 72
2004-11-05 08:48:28 51°15.579 2°49.629 16.6 21 11.2 102760 72
2004-11-05 08:48:33 51°15.584 2°49.599 17.5 21 11.2 102760 72
2004-11-05 08:48:38 51°15.588 2°49.57 16.1 18 11.2 102760 72
2004-11-05 08:48:42 51°15.591 2°49.547 15.5 19 11.2 102760 72
2004-11-05 08:48:48 51°15.595 2°49.512 16.3 20 11.2 102760 72
2004-11-05 08:48:54 51°15.6 2°49.478 18.6 19 11.2 102770 72
2004-11-05 08:48:57 51°15.602 2°49.46 18 18 11.2 102770 72
2004-11-05 08:49:03 51°15.606 2°49.426 18 17 11.2 102760 73
2004-11-05 08:49:09 51°15.61 2°49.391 18.2 22 11.2 102760 73
2004-11-05 08:49:14 51°15.614 2°49.362 16.7 20 11.3 102770 73
2004-11-05 08:49:18 51°15.617 2°49.339 18.3 19 11.3 102770 73
2004-11-05 08:49:23 51°15.621 2°49.31 18.4 19 11.2 102770 73
2004-11-05 08:49:26 51°15.623 2°49.293 18.2 20 11.2 102770 73
2004-11-05 08:49:34 51°15.629 2°49.246 16.8 20 11.2 102770 73
2004-11-05 08:49:42 51°15.635 2°49.2 15.4 20 11.2 102760 72
2004-11-05 08:49:48 51°15.64 2°49.166 16.9 16 11.2 102760 72
2004-11-05 08:49:50 51°15.642 2°49.155 16.1 18 11.2 102760 72
2004-11-05 08:49:58 51°15.648 2°49.109 16.7 19 11.2 102760 72
2004-11-05 08:50:02 51°15.651 2°49.086 16.6 18 11.2 102770 72
2004-11-05 08:50:06 51°15.654 2°49.063 17.2 18 11.2 102770 72
2004-11-05 08:50:11 51°15.658 2°49.035 16.6 20 11.2 102760 72
2004-11-05 08:50:18 51°15.663 2°48.994 16.3 24 11.2 102760 72
2004-11-05 08:50:22 51°15.666 2°48.971 17.8 20 11.2 102770 72
2004-11-05 08:50:26 51°15.669 2°48.948 17.3 24 11.2 102770 72
2004-11-05 08:50:31 51°15.673 2°48.919 17.5 19 11.2 102760 72
2004-11-05 08:50:34 51°15.675 2°48.901 15.9 26 11.2 102760 72
2004-11-05 08:50:41 51°15.68 2°48.862 17.2 22 11.2 102760 72
2004-11-05 08:50:46 51°15.684 2°48.834 16.1 22 11.2 102760 72
2004-11-05 08:50:49 51°15.686 2°48.816 15.3 23 11.2 102800 72
2004-11-05 08:50:56 51°15.691 2°48.776 16.8 22 11.2 102800 72
2004-11-05 08:51:02 51°15.695 2°48.744 17 25 11.2 102770 72
2004-11-05 08:51:08 51°15.699 2°48.71 16.7 25 11.2 102770 72
2004-11-05 08:51:10 51°15.7 2°48.699 16.3 29 11.2 102770 73
2004-11-05 08:51:16 51°15.705 2°48.664 17 22 11.2 102770 73
2004-11-05 08:51:22 51°15.709 2°48.63 17.2 25 11.3 102760 74
2004-11-05 08:51:26 51°15.712 2°48.608 17 23 11.3 102760 74
2004-11-05 08:51:32 51°15.717 2°48.574 15.6 23 11.3 102770 74
2004-11-05 08:51:35 51°15.719 2°48.557 17.3 21 11.3 102770 74
2004-11-05 08:51:41 51°15.723 2°48.523 15.8 18 11.2 102770 74
2004-11-05 08:51:45 51°15.726 2°48.5 18.7 25 11.2 102770 74
2004-11-05 08:51:51 51°15.731 2°48.466 18.2 17 11.2 102770 73
2004-11-05 08:51:55 51°15.733 2°48.443 16.9 20 11.2 102770 73
2004-11-05 08:52:02 51°15.739 2°48.403 15.2 24 11.2 102770 73
2004-11-05 08:52:06 51°15.741 2°48.38 19 20 11.2 102770 73
2004-11-05 08:52:11 51°15.745 2°48.352 18.9 22 11.2 102770 72
2004-11-05 08:52:14 51°15.748 2°48.335 17.7 26 11.2 102770 72
2004-11-05 08:52:27 51°15.757 2°48.26 18.7 22 11.2 102770 72
2004-11-05 08:52:30 51°15.759 2°48.243 18.5 24 11.2 102760 73
2004-11-05 08:52:38 51°15.765 2°48.197 17 23 11.2 102770 73
2004-11-05 08:52:48 51°15.772 2°48.14 19.7 26 11.2 102770 73
2004-11-05 08:52:51 51°15.774 2°48.123 18.7 23 11.2 102760 73
2004-11-05 08:52:57 51°15.778 2°48.09 16.1 25 11.2 102760 73
2004-11-05 08:53:02 51°15.781 2°48.062 17.8 28 11.1 102760 74
2004-11-05 08:53:07 51°15.785 2°48.034 18.5 24 11.1 102760 74
2004-11-05 08:53:19 51°15.794 2°47.965 18 25 11 102780 76
2004-11-05 08:53:25 51°15.799 2°47.93 18.6 24 11 102780 76
2004-11-05 08:53:31 51°15.803 2°47.896 16.5 30 11 102750 75
2004-11-05 08:53:35 51°15.806 2°47.873 17.1 25 11 102750 75
2004-11-05 08:53:40 51°15.81 2°47.844 18.6 30 10.9 102750 75
2004-11-05 08:53:44 51°15.813 2°47.821 16.4   10.9 102750 75
2004-11-05 08:53:49 51°15.818 2°47.792 16 28 10.9 102760 75
2004-11-05 08:53:55 51°15.822 2°47.757 15.8 26 10.9 102760 75
2004-11-05 08:54:02 51°15.827 2°47.716 17.9 22 10.9 102760 75
2004-11-05 08:54:06 51°15.83 2°47.693 15.5 27 10.9 102760 75
2004-11-05 08:54:10 51°15.834 2°47.67 16.8 18 10.9 102760 75
2004-11-05 08:54:14 51°15.836 2°47.647 16.6 23 10.9 102760 75
2004-11-05 08:54:20 51°15.841 2°47.613 17.8 21 10.9 102760 75
2004-11-05 08:54:26 51°15.846 2°47.578 18.1 22 10.9 102760 75
2004-11-05 08:54:30 51°15.849 2°47.555 18.1 22 10.9 102770 75
2004-11-05 08:54:35 51°15.852 2°47.526 18.2 26 10.9 102770 75
2004-11-05 08:54:39 51°15.856 2°47.502 17.6 26 10.9 102780 75
2004-11-05 08:54:45 51°15.86 2°47.467 17.9 24 10.9 102780 75
2004-11-05 08:54:49 51°15.863 2°47.444 17.3 25 10.9 102760 74
2004-11-05 08:54:55 51°15.868 2°47.408 16.8 27 10.9 102760 74
2004-11-05 08:54:58 51°15.87 2°47.391 17.3 26 10.9 102770 73
2004-11-05 08:55:05 51°15.875 2°47.351 17.2 26 10.9 102770 73
2004-11-05 08:55:10 51°15.879 2°47.322 17.7 29 10.9 102770 73
2004-11-05 08:55:14 51°15.882 2°47.299 17 28 10.9 102770 73
2004-11-05 08:55:17 51°15.884 2°47.281 16 27 10.9 102760 73
2004-11-05 08:55:25 51°15.89 2°47.234 15.8 31 10.9 102760 73
2004-11-05 08:55:29 51°15.893 2°47.211 16.9 23 11 102770 73
2004-11-05 08:55:35 51°15.897 2°47.176 17.4 29 11 102770 73
2004-11-05 08:55:39 51°15.9 2°47.152 16.7 33 11 102760 73
2004-11-05 08:55:45 51°15.905 2°47.117 16   11 102760 73
2004-11-05 08:55:50 51°15.909 2°47.088 16.6 30 11 102770 73
2004-11-05 08:55:56 51°15.913 2°47.053 16.5 30 11 102770 73
2004-11-05 08:55:59 51°15.916 2°47.035 18.6 29 11 102770 73
2004-11-05 08:56:06 51°15.921 2°46.995 17.2 29 11 102770 73
2004-11-05 08:56:10 51°15.924 2°46.971 18.1 37 11 102760 73
2004-11-05 08:56:15 51°15.927 2°46.942 16.9 29 11 102760 73
2004-11-05 08:56:20 51°15.931 2°46.913 18.4 28 11 102760 72
2004-11-05 08:56:25 51°15.934 2°46.884 18 32 11 102760 72
2004-11-05 08:56:30 51°15.938 2°46.855 19.1 30 11 102770 72
2004-11-05 08:56:33 51°15.94 2°46.838 18.4 28 11 102770 72
2004-11-05 08:56:39 51°15.945 2°46.803 17.9 23 11.1 102760 73
2004-11-05 08:56:45 51°15.949 2°46.769 17.6   11.1 102760 73
2004-11-05 08:56:50 51°15.953 2°46.74 16 27 11 102760 72
2004-11-05 08:56:55 51°15.956 2°46.711 16.8 28 11 102760 72
2004-11-05 08:56:59 51°15.959 2°46.688 16.2 24 11.1 102760 71
2004-11-05 08:57:05 51°15.963 2°46.653 17.4 25 11.1 102760 71
2004-11-05 08:57:10 51°15.967 2°46.624 17.5 26 11.1 102760 71
2004-11-05 08:57:14 51°15.969 2°46.6 17.8 26 11.1 102760 71
2004-11-05 08:57:19 51°15.973 2°46.572 16.1 24 11.1 102760 72
2004-11-05 08:57:25 51°15.978 2°46.536 15.9 29 11.1 102760 72
2004-11-05 08:57:29 51°15.981 2°46.513 16.1 29 11.1 102770 73
2004-11-05 08:57:35 51°15.985 2°46.479 15.2 28 11.1 102770 73
2004-11-05 08:57:40 51°15.989 2°46.451 15.2 24 11.1 102770 73
2004-11-05 08:57:46 51°15.993 2°46.416 15.6 25 11.1 102770 73
2004-11-05 08:57:50 51°15.996 2°46.393 15 28 11.2 102780 73
2004-11-05 08:57:54 51°15.999 2°46.371 16.5 30 11.2 102780 73
2004-11-05 08:58:00 51°16.004 2°46.335 14.3 21 11.2 102770 74
2004-11-05 08:58:06 51°16.009 2°46.301 16.1 22 11.2 102770 74
2004-11-05 08:58:10 51°16.012 2°46.278 16.8 26 11.2 102770 74
2004-11-05 08:58:14 51°16.015 2°46.255 15.9 25 11.2 102770 74
2004-11-05 08:58:20 51°16.019 2°46.221 16.7 22 11.2 102770 74
2004-11-05 08:58:26 51°16.024 2°46.186 19.2 22 11.2 102770 74
2004-11-05 08:58:29 51°16.026 2°46.168 18.2 24 11.2 102770 74
2004-11-05 08:58:35 51°16.031 2°46.134 17.1 27 11.2 102770 74
2004-11-05 08:58:38 51°16.033 2°46.116 17.4 21 11.2 102780 74
2004-11-05 08:58:45 51°16.038 2°46.077 17.2 22 11.2 102780 74
2004-11-05 08:58:50 51°16.041 2°46.049 18 25 11.2 102770 73
2004-11-05 08:58:55 51°16.044 2°46.02 15.3 24 11.2 102770 73
2004-11-05 08:58:59 51°16.047 2°45.998 15.8 29 11.2 102770 72
2004-11-05 08:59:04 51°16.05 2°45.971 14.5 30 11.2 102770 72
2004-11-05 08:59:10 51°16.055 2°45.938 14.5 24 11.2 102780 73
2004-11-05 08:59:15 51°16.058 2°45.911 14.4 31 11.2 102780 73
2004-11-05 08:59:20 51°16.062 2°45.882 17.4 27 11.2 102780 73
2004-11-05 08:59:25 51°16.066 2°45.854 17.2 27 11.2 102780 73
2004-11-05 08:59:29 51°16.069 2°45.831 15.4 23 11.2 102770 74
2004-11-05 08:59:35 51°16.073 2°45.797 16.5 24 11.2 102770 74
2004-11-05 08:59:39 51°16.076 2°45.774 15.6 25 11.2 102760 73
2004-11-05 08:59:45 51°16.081 2°45.741 16 21 11.2 102760 73
2004-11-05 08:59:49 51°16.085 2°45.718 17.3 20 11.2 102770 73
2004-11-05 08:59:54 51°16.091 2°45.692 14.9 18 11.2 102770 73
2004-11-05 09:00:00 51°16.101 2°45.661 17.2 13 11.2 102770 73
2004-11-05 09:00:05 51°16.11 2°45.636 16.1 10 11.2 102770 73
2004-11-05 09:00:07 51°16.113 2°45.626 16.8 4 11.2 102770 73
2004-11-05 09:00:14 51°16.128 2°45.591 16.4 7 11.2 102770 73
2004-11-05 09:00:20 51°16.14 2°45.562 17.5 6 11.2 102780 74
2004-11-05 09:00:25 51°16.151 2°45.539 15.9 4 11.2 102780 74
2004-11-05 09:00:30 51°16.162 2°45.516 17.5 5 11.2 102790 75
2004-11-05 09:00:35 51°16.173 2°45.493 16.9 6 11.2 102790 75
2004-11-05 09:00:40 51°16.183 2°45.47 17.5 7 11.2 102810 74
2004-11-05 09:00:45 51°16.194 2°45.446 16.6 11 11.2 102810 74
2004-11-05 09:00:47 51°16.199 2°45.437 17.8 9 11.2 102770 74
2004-11-05 09:00:54 51°16.214 2°45.404 17.7 15 11.2 102770 74
2004-11-05 09:00:59 51°16.224 2°45.381 17.1 15 11.2 102780 74
2004-11-05 09:01:05 51°16.238 2°45.352 18.8 14 11.2 102780 74
2004-11-05 09:01:10 51°16.248 2°45.329 19.9 13 11.2 102790 74
2004-11-05 09:01:14 51°16.257 2°45.31 17.6 10 11.2 102790 74
2004-11-05 09:01:18 51°16.265 2°45.291 17.9 6 11.1 102790 74
2004-11-05 09:01:24 51°16.278 2°45.262 17.1 12 11.1 102790 74
2004-11-05 09:01:29 51°16.29 2°45.239 17.9 6 11.1 102780 73
2004-11-05 09:01:35 51°16.303 2°45.211 18.9 9 11.1 102780 73
2004-11-05 09:01:38 51°16.309 2°45.196 18.6 6 11.1 102780 73
2004-11-05 09:01:46 51°16.327 2°45.159 18.4 6 11.1 102780 73
2004-11-05 09:01:50 51°16.335 2°45.14 17.6 7 11.1 102780 73
2004-11-05 09:01:54 51°16.344 2°45.12 17.5 9 11.1 102780 73
2004-11-05 09:02:00 51°16.358 2°45.092 17.2 12 11.1 102790 72
2004-11-05 09:02:06 51°16.37 2°45.065 18.1 12 11.1 102790 72
2004-11-05 09:02:10 51°16.379 2°45.046 18.2 9 11.1 102780 72
2004-11-05 09:02:16 51°16.392 2°45.018 17.5 11 11.1 102780 72
2004-11-05 09:02:20 51°16.401 2°45 18 11 11.1 102790 72
2004-11-05 09:02:26 51°16.414 2°44.972 18.2 11 11.1 102790 72
2004-11-05 09:02:30 51°16.423 2°44.954 17.3 11 11.1 102800 72
2004-11-05 09:02:36 51°16.437 2°44.925 16.5 12 11.1 102800 72
2004-11-05 09:02:40 51°16.446 2°44.907 16.2 15 11.1 102820 71
2004-11-05 09:02:46 51°16.459 2°44.879 17.4 11 11.1 102820 71
2004-11-05 09:02:50 51°16.468 2°44.861 17.3 10 11.1 102820 71
2004-11-05 09:02:56 51°16.481 2°44.833 18.5 12 11.1 102820 71
2004-11-05 09:03:00 51°16.49 2°44.815 17 16 11.1 102810 72
2004-11-05 09:03:06 51°16.503 2°44.787 18.7 12 11.1 102810 72
2004-11-05 09:03:10 51°16.512 2°44.769 19.3 12 11.1 102820 72
2004-11-05 09:03:16 51°16.525 2°44.741 18.5 12 11.1 102820 72
2004-11-05 09:03:18 51°16.529 2°44.732 18.3 10 11.1 102810 71
2004-11-05 09:03:26 51°16.547 2°44.694 16.6 10 11.1 102810 71
2004-11-05 09:03:29 51°16.553 2°44.68 17.6 6 11.1 102830 72
2004-11-05 09:03:35 51°16.566 2°44.653 15.2 5 11.1 102830 72
2004-11-05 09:03:40 51°16.577 2°44.63 16.5 6 11.1 102790 71
2004-11-05 09:03:46 51°16.59 2°44.603 18.5 5 11.1 102790 71
2004-11-05 09:03:50 51°16.6 2°44.585 16.3 8 11.1 102820 72
2004-11-05 09:03:54 51°16.608 2°44.567 16.5 7 11.1 102820 72
2004-11-05 09:04:00 51°16.621 2°44.54 18.6 8 11 102790 73
2004-11-05 09:04:05 51°16.632 2°44.517 18.1 6 11 102790 73
2004-11-05 09:04:08 51°16.638 2°44.503 17.6 9 11.1 102810 73
2004-11-05 09:04:16 51°16.656 2°44.467 17 8 11.1 102810 73
2004-11-05 09:04:18 51°16.661 2°44.459 16.6 5 11 102820 73
2004-11-05 09:04:26 51°16.68 2°44.424 18.4 3 11 102820 73
2004-11-05 09:04:30 51°16.69 2°44.407 16.8 10 11 102810 72
2004-11-05 09:04:36 51°16.704 2°44.382 19 6 11 102810 72
2004-11-05 09:04:40 51°16.714 2°44.364 16.6 5 11 102810 73
2004-11-05 09:04:46 51°16.73 2°44.339 18.4 1 11 102810 73
2004-11-05 09:04:50 51°16.74 2°44.322 17.3 8 11 102810 73
2004-11-05 09:04:54 51°16.749 2°44.304 17.5 5 11 102810 73
2004-11-05 09:04:58 51°16.759 2°44.287 18.7 10 11 102820 72
2004-11-05 09:05:06 51°16.778 2°44.251 18.1 6 11 102820 72
2004-11-05 09:05:10 51°16.788 2°44.233 17.6 11 11 102830 72
2004-11-05 09:05:16 51°16.802 2°44.205 16.3 9 11 102830 72
2004-11-05 09:05:20 51°16.811 2°44.187 17.8 8 11 102800 72
2004-11-05 09:05:26 51°16.824 2°44.159 17.2 15 11 102800 72
2004-11-05 09:05:32 51°16.838 2°44.131 17.9 12 11 102810 72
2004-11-05 09:05:36 51°16.847 2°44.112 17.3 14 11 102810 72
2004-11-05 09:05:38 51°16.851 2°44.104 18.4 13 11 102810 73
2004-11-05 09:05:48 51°16.873 2°44.059 15.8 9 11 102810 73
2004-11-05 09:05:54 51°16.887 2°44.031 16.8 12 11 102810 72
2004-11-05 09:05:58 51°16.896 2°44.013 17.3 13 11 102810 72
2004-11-05 09:06:04 51°16.909 2°43.987 15.6 12 11 102790 72
2004-11-05 09:06:08 51°16.918 2°43.969 15.2 16 11 102790 72
2004-11-05 09:06:14 51°16.931 2°43.941 17.6 13 11.1 102830 73
2004-11-05 09:06:18 51°16.94 2°43.923 18.2 10 11.1 102830 73
2004-11-05 09:06:24 51°16.953 2°43.897 16.3 8 11.1 102830 74
2004-11-05 09:06:26 51°16.957 2°43.888 18.7 8 11.1 102830 74
2004-11-05 09:06:46 51°17 2°43.8 19 10 11.1 102830 74
2004-11-05 09:06:52 51°17.013 2°43.774 17.6 17 11.1 102820 73
2004-11-05 09:06:58 51°17.026 2°43.747 16.4 24 11.1 102820 73
2004-11-05 09:07:02 51°17.033 2°43.728 15.7 22 11 102810 73
2004-11-05 09:07:08 51°17.041 2°43.698 17.1 23 11 102810 73
2004-11-05 09:07:12 51°17.046 2°43.677 16.5 30 11 102800 73
2004-11-05 09:07:16 51°17.051 2°43.656 16.6 26 11 102800 73
2004-11-05 09:07:22 51°17.057 2°43.624 16.5 29 11 102820 75
2004-11-05 09:07:32 51°17.063 2°43.567 16 35 10.9 102820 75
2004-11-05 09:07:36 51°17.065 2°43.544 16.5 30 10.9 102820 75
2004-11-05 09:07:42 51°17.068 2°43.51 15.9 24 10.8 102810 76
2004-11-05 09:07:46 51°17.07 2°43.487 16.1 25 10.8 102810 76
2004-11-05 09:07:52 51°17.072 2°43.451 17.1 30 10.8 102820 76
2004-11-05 09:07:58 51°17.073 2°43.417 16.8 32 10.8 102820 76
2004-11-05 09:08:02 51°17.074 2°43.394 16 30 10.7 102820 77
2004-11-05 09:08:06 51°17.076 2°43.371 17.3 27 10.7 102820 77
2004-11-05 09:08:12 51°17.078 2°43.336 16.7 27 10.7 102820 77
2004-11-05 09:08:14 51°17.078 2°43.324 15.4 28 10.7 102820 77
2004-11-05 09:08:22 51°17.081 2°43.278 15.3 27 10.6 102810 76
2004-11-05 09:08:28 51°17.083 2°43.243 16.3 23 10.6 102810 76
2004-11-05 09:08:34 51°17.085 2°43.208 17.2 27 10.6 102800 76
2004-11-05 09:08:38 51°17.086 2°43.185 17.5 26 10.6 102800 76
2004-11-05 09:08:44 51°17.088 2°43.15 17.7 32 10.6 102820 77
2004-11-05 09:08:48 51°17.089 2°43.127 17.8 28 10.6 102820 77
2004-11-05 09:08:52 51°17.091 2°43.103 16.7 31 10.6 102820 76
2004-11-05 09:08:58 51°17.093 2°43.068 18.3 29 10.6 102820 76
2004-11-05 09:09:02 51°17.094 2°43.044 17.3 36 10.6 102810 75
2004-11-05 09:09:08 51°17.097 2°43.01 17 27 10.6 102810 75
2004-11-05 09:09:14 51°17.099 2°42.974 18.5 29 10.6 102810 75
2004-11-05 09:09:18 51°17.101 2°42.951 16.3 31 10.6 102810 75
2004-11-05 09:09:28 51°17.104 2°42.894 17.8 32 10.6 102830 74
2004-11-05 09:09:30 51°17.105 2°42.883 15.4 33 10.7 102810 74
2004-11-05 09:09:44 51°17.109 2°42.804 16.4 33 10.7 102820 75
2004-11-05 09:09:48 51°17.111 2°42.781 17.8 30 10.7 102820 75
2004-11-05 09:10:08 51°17.12 2°42.666 18.4 32 10.7 102820 74
2004-11-05 09:10:12 51°17.122 2°42.643 17.3 34 10.7 102820 73
2004-11-05 09:10:16 51°17.124 2°42.62 16.9 30 10.7 102820 73
2004-11-05 09:10:28 51°17.131 2°42.549 16.4 23 10.7 102820 73
2004-11-05 09:10:32 51°17.133 2°42.525 17.1 35 10.8 102820 73
2004-11-05 09:10:38 51°17.135 2°42.491 17.2 29 10.8 102820 73
2004-11-05 09:10:42 51°17.136 2°42.467 17.6 30 10.8 102820 73
2004-11-05 09:10:48 51°17.138 2°42.43 17.6 30 10.8 102820 73
2004-11-05 09:10:54 51°17.14 2°42.394 15.3 32 10.8 102810 74
2004-11-05 09:10:56 51°17.14 2°42.382 18.3 34 10.8 102810 74
2004-11-05 09:11:02 51°17.141 2°42.345 18.4 31 10.8 102810 72
2004-11-05 09:11:08 51°17.143 2°42.309 18.2 33 10.8 102810 72
2004-11-05 09:11:12 51°17.143 2°42.285 18.7 31 10.8 102810 72
2004-11-05 09:11:16 51°17.144 2°42.261 16.9 23 10.8 102810 72
2004-11-05 09:11:20 51°17.145 2°42.237 17.7 30 10.9 102820 72
2004-11-05 09:11:28 51°17.146 2°42.189 18.9 31 10.9 102820 72
2004-11-05 09:11:32 51°17.147 2°42.165 19.5 36 10.9 102800 71
2004-11-05 09:11:38 51°17.147 2°42.13 20 35 10.9 102800 71
2004-11-05 09:11:44 51°17.148 2°42.095 18.1 37 10.9 102810 71
2004-11-05 09:11:48 51°17.147 2°42.073 18.2 36 10.9 102810 71
2004-11-05 09:11:52 51°17.148 2°42.051 17 33 10.9 102810 71
2004-11-05 09:11:58 51°17.149 2°42.016 15.7 34 10.9 102810 71
2004-11-05 09:12:03 51°17.15 2°41.988 17.4 41 10.9 102800 72
2004-11-05 09:12:06 51°17.151 2°41.971 16.8 38 10.9 102800 72
2004-11-05 09:12:12 51°17.152 2°41.936 15.8 41 10.9 102800 73
2004-11-05 09:12:16 51°17.153 2°41.913 18.3 37 10.9 102800 73
2004-11-05 09:12:28 51°17.155 2°41.844 18.4 37 10.9 102800 73
2004-11-05 09:12:32 51°17.156 2°41.82 17 37 10.8 102810 75
2004-11-05 09:12:38 51°17.158 2°41.785 16.3 39 10.8 102810 75
2004-11-05 09:12:48 51°17.16 2°41.727 17.6 37 10.7 102820 76
2004-11-05 09:12:52 51°17.16 2°41.703 15.6 40 10.7 102820 76
2004-11-05 09:12:58 51°17.162 2°41.669 15.1 36 10.7 102820 76
2004-11-05 09:13:02 51°17.162 2°41.646 16.1 40 10.6 102810 77
2004-11-05 09:13:08 51°17.163 2°41.612 17 37 10.6 102810 77
2004-11-05 09:13:12 51°17.164 2°41.588 18 31 10.6 102820 76
2004-11-05 09:13:16 51°17.166 2°41.565 17.4 32 10.6 102820 76
2004-11-05 09:13:22 51°17.168 2°41.53 16.8 34 10.6 102830 77
2004-11-05 09:13:28 51°17.171 2°41.495 16.7 31 10.6 102830 77
2004-11-05 09:13:32 51°17.172 2°41.472 15.9 32 10.6 102830 77
2004-11-05 09:13:38 51°17.175 2°41.437 16.2 30 10.6 102830 77
2004-11-05 09:13:40 51°17.176 2°41.425 17.5 30 10.5 102820 75
2004-11-05 09:13:46 51°17.179 2°41.391 15.8 26 10.5 102820 75
2004-11-05 09:13:50 51°17.181 2°41.367 16.7 31 10.5 102810 75
2004-11-05 09:13:58 51°17.185 2°41.32 16.7 32 10.5 102810 75
2004-11-05 09:14:02 51°17.186 2°41.297 17.2 28 10.6 102810 74
2004-11-05 09:14:08 51°17.19 2°41.262 17.3 26 10.6 102810 74
2004-11-05 09:14:11 51°17.191 2°41.244 17.6 19 10.5 102820 74
2004-11-05 09:14:17 51°17.194 2°41.209 18.3 26 10.5 102820 74
2004-11-05 09:14:22 51°17.195 2°41.18 19.2 31 10.6 102810 74
2004-11-05 09:14:28 51°17.198 2°41.144 18.5 32 10.6 102810 74
2004-11-05 09:14:32 51°17.199 2°41.121 19.6 35 10.6 102810 74
2004-11-05 09:14:38 51°17.202 2°41.085 19.4 37 10.6 102810 74
2004-11-05 09:14:42 51°17.203 2°41.062 17.1 31 10.6 102820 74
2004-11-05 09:14:48 51°17.206 2°41.028 19.9 29 10.6 102820 74
2004-11-05 09:14:52 51°17.207 2°41.005 18.2 32 10.6 102810 73
2004-11-05 09:14:58 51°17.209 2°40.97 17.3 31 10.6 102810 73
2004-11-05 09:15:02 51°17.211 2°40.947 18.2 28 10.6 102790 73
2004-11-05 09:15:06 51°17.211 2°40.924 17.6 31 10.6 102790 73
2004-11-05 09:15:12 51°17.214 2°40.889 17.1 32 10.6 102830 73
2004-11-05 09:15:18 51°17.215 2°40.853 17.8 31 10.6 102830 73
2004-11-05 09:15:20 51°17.216 2°40.842 17.6 30 10.7 102820 73
2004-11-05 09:15:28 51°17.218 2°40.795 18.7 35 10.7 102820 73
2004-11-05 09:15:32 51°17.219 2°40.771 17.9 35 10.7 102810 73
2004-11-05 09:15:48 51°17.223 2°40.678 16.5 32 10.7 102810 73
2004-11-05 09:15:58 51°17.226 2°40.619 18 37 10.7 102820 72
2004-11-05 09:16:04 51°17.228 2°40.585 17 32 10.7 102810 73
2004-11-05 09:16:10 51°17.229 2°40.55 16.7 35 10.7 102810 73
2004-11-05 09:16:14 51°17.229 2°40.527 17.1 37 10.8 102810 73
2004-11-05 09:16:17 51°17.23 2°40.51 16.2 35 10.8 102810 73
2004-11-05 09:16:23 51°17.232 2°40.474 14.3 33 10.7 102810 72
2004-11-05 09:16:36 51°17.235 2°40.399 17.7 37 10.7 102810 72
2004-11-05 09:16:42 51°17.237 2°40.364 17.8 35 10.8 102820 73
2004-11-05 09:16:46 51°17.238 2°40.34 19.1 39 10.8 102820 73
2004-11-05 09:16:52 51°17.24 2°40.305 14.5 29 10.8 102830 73
2004-11-05 09:16:56 51°17.24 2°40.282 15.5 34 10.8 102830 73
2004-11-05 09:17:02 51°17.242 2°40.247 17.5 28 10.8 102810 72
2004-11-05 09:17:06 51°17.243 2°40.223 17.4 35 10.8 102810 72
2004-11-05 09:17:10 51°17.245 2°40.2 17.6 31 10.9 102810 72
2004-11-05 09:17:24 51°17.248 2°40.117 19.6 30 10.9 102820 73
2004-11-05 09:17:26 51°17.25 2°40.105 17.9 31 10.9 102820 73
2004-11-05 09:17:34 51°17.252 2°40.058 18.8 31 10.9 102820 73
2004-11-05 09:17:38 51°17.253 2°40.035 17 33 10.9 102820 73
2004-11-05 09:17:42 51°17.254 2°40.012 18 25 11 102820 72
2004-11-05 09:17:58 51°17.259 2°39.918 16.5 28 11 102820 72
2004-11-05 09:18:02 51°17.26 2°39.894 17.4 25 10.9 102800 70
2004-11-05 09:18:06 51°17.261 2°39.871 16 28 10.9 102800 70
2004-11-05 09:18:10 51°17.262 2°39.847 17.7 31 11 102830 70
2004-11-05 09:18:16 51°17.264 2°39.811 17.8 32 11 102830 70
2004-11-05 09:18:22 51°17.266 2°39.776 18.2 29 11 102820 71
2004-11-05 09:18:24 51°17.267 2°39.764 17.9 31 11 102820 71
2004-11-05 09:18:31 51°17.27 2°39.723 17.1 30 11 102830 71
2004-11-05 09:18:36 51°17.271 2°39.693 17.8 26 11 102830 71
2004-11-05 09:18:42 51°17.273 2°39.658 17.5 30 11 102820 71
2004-11-05 09:18:46 51°17.274 2°39.635 16.2 31 11 102820 71
2004-11-05 09:19:04 51°17.278 2°39.531 17.5 28 11 102840 71
2004-11-05 09:19:08 51°17.279 2°39.508 16.8 31 11 102840 71
2004-11-05 09:19:14 51°17.28 2°39.477 16 31 11.1 102810 71
2004-11-05 09:19:20 51°17.282 2°39.446 16.3 33 11.1 102810 71
2004-11-05 09:19:24 51°17.283 2°39.426 15.7 37 11.1 102810 72
2004-11-05 09:19:28 51°17.284 2°39.408 14.5 32 11.1 102810 72
2004-11-05 09:19:34 51°17.285 2°39.38 16.1 27 11.1 102830 71
2004-11-05 09:19:50 51°17.289 2°39.312 16.4 38 11.1 102830 71
2004-11-05 09:19:54 51°17.291 2°39.296 15.8 35 11.1 102830 71
2004-11-05 09:20:08 51°17.294 2°39.242 15.9 36 11.1 102830 72
2004-11-05 09:20:12 51°17.295 2°39.227 15.2 35 11.1 102820 71
2004-11-05 09:20:18 51°17.297 2°39.206 14.2 30 11.1 102820 71
2004-11-05 09:20:24 51°17.299 2°39.185 14.3 30 11.1 102820 70
2004-11-05 09:20:28 51°17.3 2°39.171 13.4 32 11.1 102820 70
2004-11-05 09:20:33 51°17.301 2°39.156 13.4 36 11.1 102830 69
2004-11-05 09:20:39 51°17.303 2°39.138 12.2 35 11.1 102830 69
2004-11-05 09:20:44 51°17.305 2°39.125 12.5 30 11.1 102830 70
2004-11-05 09:20:48 51°17.306 2°39.114 11.9 25 11.1 102830 70
2004-11-05 09:21:03 51°17.312 2°39.08 12.6 25 11.1 102830 72
2004-11-05 09:21:06 51°17.313 2°39.074 14 17 11.1 102830 72
2004-11-05 09:21:16 51°17.318 2°39.056 13.3 12 11.1 102830 72
2004-11-05 09:21:20 51°17.321 2°39.05 14.5 6 11.2 102850 73
2004-11-05 09:21:26 51°17.325 2°39.042 14.3 2 11.2 102850 73
2004-11-05 09:21:30 51°17.328 2°39.037 12.3 352 11.2 102830 72
2004-11-05 09:21:36 51°17.333 2°39.031 12.4 346 11.2 102830 72
2004-11-05 09:21:40 51°17.335 2°39.029 4.4 341 11.1 102840 69
2004-11-05 09:21:46 51°17.339 2°39.025 11 334 11.1 102840 69
2004-11-05 09:21:50 51°17.341 2°39.024 11.8 319 11.1 102840 67
2004-11-05 09:21:56 51°17.345 2°39.024 10.8 318 11.1 102840 67
2004-11-05 09:22:00 51°17.347 2°39.023 10.8 322 11 102850 66
2004-11-05 09:22:06 51°17.35 2°39.023 10.6 42 11 102850 66
2004-11-05 09:22:10 51°17.351 2°39.024 11.7 312 11 102840 67
2004-11-05 09:22:14 51°17.352 2°39.025 10.6 309 11 102840 67
2004-11-05 09:22:20 51°17.354 2°39.026 10.7 305 11 102820 67
2004-11-05 09:22:26 51°17.355 2°39.026 10.2 302 11 102820 67
2004-11-05 09:22:32 51°17.355 2°39.027 9.7 294 11.1 102830 67
2004-11-05 09:22:34 51°17.355 2°39.027 11.2 304 11.1 102830 67
2004-11-05 09:22:39 51°17.355 2°39.028 10.7 295 11.1 102840 67
2004-11-05 09:22:46 51°17.355 2°39.029 11.8 296 11.1 102840 67
2004-11-05 09:22:50 51°17.355 2°39.03 11.4 291 11 102840 68
2004-11-05 09:22:56 51°17.355 2°39.031 12.4 277 11 102840 68
2004-11-05 09:23:00 51°17.355 2°39.032 11.4 278 11.1 102840 68
2004-11-05 09:23:06 51°17.355 2°39.033 11.9 287 11.1 102840 68
2004-11-05 09:23:10 51°17.355 2°39.034 13.4 276 11.1 102830 69
2004-11-05 09:23:15 51°17.354 2°39.034 12.2 283 11.1 102830 69
2004-11-05 09:23:22 51°17.354 2°39.036 12.8 282 11.1 102830 70
2004-11-05 09:23:26 51°17.354 2°39.037 10.7 286 11.1 102830 70
2004-11-05 09:23:30 51°17.353 2°39.038 10.4 279 11.1 102820 71
2004-11-05 09:23:35 51°17.352 2°39.039 13 281 11.1 102820 71
2004-11-05 09:23:40 51°17.352 2°39.04 13.5 270 11.2 102830 71
2004-11-05 09:23:46 51°17.351 2°39.041 11 276 11.2 102830 71
2004-11-05 09:23:50 51°17.351 2°39.042 11.9 269 11.1 102840 71
2004-11-05 09:23:55 51°17.35 2°39.044 11.2 275 11.1 102840 71
2004-11-05 09:24:00 51°17.349 2°39.045 12.4 263 11.2 102830 71
2004-11-05 09:24:10 51°17.349 2°39.046 10.6 261 11.2 102840 72
2004-11-05 09:24:14 51°17.348 2°39.047 12.1 280 11.2 102840 72
2004-11-05 09:24:28 51°17.347 2°39.05 14.1 270 11.2 102840 72
2004-11-05 09:24:32 51°17.346 2°39.05 12 266 11.2 102840 73
2004-11-05 09:24:38 51°17.345 2°39.051 12.5 276 11.2 102840 73
2004-11-05 09:24:42 51°17.345 2°39.052 12.8 269 11.2 102840 73
2004-11-05 09:24:47 51°17.344 2°39.052 12.4 275 11.2 102840 73
2004-11-05 09:24:49 51°17.344 2°39.053 12.4 275 11.2 102840 73
2004-11-05 09:24:57 51°17.342 2°39.055 11.5 277 11.2 102840 73
2004-11-05 09:25:02 51°17.341 2°39.056 13.8 276 11.2 102840 73
2004-11-05 09:25:07 51°17.34 2°39.056 15 274 11.2 102840 73
2004-11-05 09:25:12 51°17.339 2°39.057 12.7 273 11.2 102840 72
2004-11-05 09:25:15 51°17.339 2°39.058 12.2 274 11.2 102840 72
2004-11-05 09:25:22 51°17.338 2°39.058 12.8 270 11.2 102840 72
2004-11-05 09:25:28 51°17.337 2°39.059 11.2 273 11.2 102840 72
2004-11-05 09:25:32 51°17.336 2°39.059 14.3 270 11.2 102840 71
2004-11-05 09:25:38 51°17.335 2°39.06 11.5 267 11.2 102840 71
2004-11-05 09:25:42 51°17.334 2°39.06 9.3 260 11.2 102840 71
2004-11-05 09:25:46 51°17.333 2°39.06 11 263 11.2 102840 71
2004-11-05 09:25:51 51°17.332 2°39.061 11.5 263 11.1 102830 71
2004-11-05 09:25:58 51°17.331 2°39.061 11.4 265 11.1 102830 71
2004-11-05 09:26:02 51°17.33 2°39.062 10.8 261 11.1 102840 71
2004-11-05 09:26:08 51°17.329 2°39.062 11.3 262 11.1 102840 71
2004-11-05 09:26:12 51°17.328 2°39.063 9.7 259 11.1 102850 72
2004-11-05 09:26:18 51°17.327 2°39.063 8.6 261 11.1 102850 72
2004-11-05 09:26:22 51°17.327 2°39.064 10.5 263 11.1 102840 71
2004-11-05 09:26:28 51°17.326 2°39.065 7.8 252 11.1 102840 71
2004-11-05 09:26:30 51°17.325 2°39.065 9.1 258 11.1 102830 70
2004-11-05 09:26:38 51°17.324 2°39.066 8.7 252 11.1 102830 70
2004-11-05 09:26:42 51°17.323 2°39.067 10.4 258 11.1 102840 71
2004-11-05 09:26:48 51°17.322 2°39.067 10.3 266 11.1 102840 71
2004-11-05 09:26:52 51°17.322 2°39.068 11.4 260 11.1 102830 71
2004-11-05 09:26:54 51°17.321 2°39.068 12.8 270 11.1 102830 71
2004-11-05 09:27:02 51°17.32 2°39.07 13.8 271 11.1 102830 71
2004-11-05 09:27:06 51°17.319 2°39.07 12.8 263 11.1 102830 71
2004-11-05 09:27:12 51°17.319 2°39.071 13.3 260 11.1 102840 72
2004-11-05 09:27:16 51°17.318 2°39.072 14.6 268 11.1 102840 72
2004-11-05 09:27:22 51°17.317 2°39.072 13.4 264 11.1 102840 71
2004-11-05 09:27:26 51°17.316 2°39.074 12.5 265 11.1 102840 71
2004-11-05 09:27:32 51°17.315 2°39.075 13.2 261 11.1 102840 70
2004-11-05 09:27:38 51°17.314 2°39.076 9.5 275 11.1 102840 70
2004-11-05 09:27:42 51°17.313 2°39.076 11.8 268 11.1 102840 70
2004-11-05 09:27:48 51°17.312 2°39.077 11 274 11.1 102840 70
2004-11-05 09:27:50 51°17.312 2°39.078 12.3 270 11.1 102850 69
2004-11-05 09:27:56 51°17.311 2°39.078 10.8 277 11.1 102850 69
2004-11-05 09:28:02 51°17.31 2°39.08 10 272 11.1 102850 69
2004-11-05 09:28:06 51°17.31 2°39.08 10 268 11.1 102850 69
2004-11-05 09:28:12 51°17.309 2°39.081 9.2 274 11.1 102850 70
2004-11-05 09:28:16 51°17.308 2°39.082 9.5 273 11.1 102850 70
2004-11-05 09:28:22 51°17.307 2°39.083 10.5 280 11.1 102840 71
2004-11-05 09:28:28 51°17.307 2°39.084 13 273 11.1 102840 71
2004-11-05 09:28:32 51°17.306 2°39.085 11.3 276 11.2 102840 72
2004-11-05 09:28:36 51°17.306 2°39.085 9.8 272 11.2 102840 72
2004-11-05 09:28:42 51°17.305 2°39.087 10.8 274 11.2 102850 72
2004-11-05 09:28:48 51°17.304 2°39.087 10.9 288 11.2 102850 72
2004-11-05 09:28:52 51°17.304 2°39.088 9.7 280 11.2 102840 72
2004-11-05 09:28:56 51°17.303 2°39.088 12.5 275 11.2 102840 72
2004-11-05 09:29:02 51°17.303 2°39.089 12.3 273 11.2 102840 71
2004-11-05 09:29:08 51°17.302 2°39.09 12.3 268 11.2 102840 71
2004-11-05 09:29:12 51°17.301 2°39.091 11.5 263 11.2 102840 71
2004-11-05 09:29:18 51°17.301 2°39.091 13.7 262 11.2 102840 71
2004-11-05 09:29:22 51°17.3 2°39.092 12.5 267 11.2 102840 71
2004-11-05 09:29:28 51°17.3 2°39.093 11.2 268 11.2 102840 71
2004-11-05 09:29:30 51°17.3 2°39.093 12.4 262 11.2 102840 71
2004-11-05 09:29:50 51°17.297 2°39.096 10.9 276 11.1 102850 70
2004-11-05 09:29:56 51°17.296 2°39.098 13 273 11.1 102850 70
2004-11-05 09:29:58 51°17.297 2°39.097 13.5 272 11.1 102850 70
2004-11-05 09:30:06 51°17.295 2°39.099 12.3 276 11.1 102850 70
2004-11-05 09:30:12 51°17.295 2°39.1 11.8 278 11.1 102850 70
2004-11-05 09:30:16 51°17.295 2°39.1 11.4 276 11.1 102850 70
2004-11-05 09:30:28 51°17.293 2°39.102 10.8 277 11.1 102850 70
2004-11-05 09:30:32 51°17.293 2°39.102 11.5 275 11.1 102840 70
2004-11-05 09:30:38 51°17.292 2°39.103 12.2 274 11.1 102840 70
2004-11-05 09:30:42 51°17.292 2°39.104 11 274 11.1 102850 69
2004-11-05 09:30:48 51°17.291 2°39.105 8.9 273 11.1 102850 69
2004-11-05 09:30:52 51°17.291 2°39.105 10.5 271 11.1 102830 69
2004-11-05 09:30:56 51°17.29 2°39.105 8.2 268 11.1 102830 69
2004-11-05 09:31:02 51°17.289 2°39.106 10.7 270 11.1 102840 70
2004-11-05 09:31:08 51°17.288 2°39.106 10.6 271 11.1 102840 70
2004-11-05 09:31:12 51°17.288 2°39.107 14.6 267 11.1 102850 70
2004-11-05 09:31:18 51°17.287 2°39.108 13 262 11.1 102850 70
2004-11-05 09:31:22 51°17.287 2°39.108 13.6 264 11.1 102840 71
2004-11-05 09:31:28 51°17.286 2°39.109 13.2 270 11.1 102840 71
2004-11-05 09:31:32 51°17.285 2°39.109 12.6 271 11.1 102850 71
2004-11-05 09:31:38 51°17.284 2°39.11 12.3 265 11.1 102850 71
2004-11-05 09:31:42 51°17.283 2°39.11 13.8 270 11.1 102840 69
2004-11-05 09:31:48 51°17.283 2°39.111 11 268 11.1 102840 69
2004-11-05 09:31:52 51°17.282 2°39.111 11.8 271 11.1 102830 69
2004-11-05 09:31:58 51°17.281 2°39.112 12.9 270 11.1 102830 69
2004-11-05 09:32:02 51°17.281 2°39.112 12.7 269 11.1 102840 69
2004-11-05 09:32:08 51°17.28 2°39.113 10.8 269 11.1 102840 69
2004-11-05 09:32:12 51°17.279 2°39.113 11.6 275 11.1 102840 69
2004-11-05 09:32:18 51°17.279 2°39.114 9.7 276 11.1 102840 69
2004-11-05 09:32:22 51°17.278 2°39.115 12.9 265 11.1 102850 69
2004-11-05 09:32:28 51°17.277 2°39.116 13.4 270 11.1 102850 69
2004-11-05 09:32:32 51°17.276 2°39.116 11.3 267 11.1 102840 69
2004-11-05 09:32:38 51°17.276 2°39.116 9.8 266 11.1 102840 69
2004-11-05 09:32:42 51°17.275 2°39.117 11.9 264 11.1 102840 69
2004-11-05 09:32:46 51°17.274 2°39.117 10.8 270 11.1 102840 69
2004-11-05 09:32:52 51°17.273 2°39.117 11.2 266 11.1 102850 70
2004-11-05 09:32:58 51°17.273 2°39.118 9.1 267 11.1 102850 70
2004-11-05 09:33:02 51°17.272 2°39.119 11 269 11.1 102840 70
2004-11-05 09:33:08 51°17.271 2°39.119 10.1 270 11.1 102840 70
2004-11-05 09:33:12 51°17.27 2°39.119 10 266 11.1 102850 70
2004-11-05 09:33:18 51°17.269 2°39.119 12.9 270 11.1 102850 70
2004-11-05 09:33:22 51°17.269 2°39.119 10 264 11.1 102850 70
2004-11-05 09:33:26 51°17.268 2°39.119 7 254 11.1 102850 70
2004-11-05 09:33:32 51°17.268 2°39.12 7.4 259 11.1 102850 71
2004-11-05 09:33:38 51°17.266 2°39.12 9.3 263 11.1 102850 71
2004-11-05 09:33:42 51°17.266 2°39.121 10.9 270 11.1 102860 71
2004-11-05 09:33:46 51°17.265 2°39.121 8.5 270 11.1 102860 71
2004-11-05 09:33:52 51°17.264 2°39.121 12 263 11.2 102850 71
2004-11-05 09:33:58 51°17.264 2°39.122 9.5 261 11.2 102850 71
2004-11-05 09:34:00 51°17.264 2°39.122 8.5 259 11.2 102860 72
2004-11-05 09:34:08 51°17.262 2°39.123 9.8 258 11.2 102860 72
2004-11-05 09:34:12 51°17.262 2°39.124 9.5 254 11.2 102850 72
2004-11-05 09:34:18 51°17.261 2°39.125 12.8 262 11.2 102850 72
2004-11-05 09:34:22 51°17.261 2°39.125 12.1 266 11.2 102850 71
2004-11-05 09:34:28 51°17.26 2°39.126 12.1 269 11.2 102850 71
2004-11-05 09:34:32 51°17.26 2°39.126 11.3 267 11.2 102860 70
2004-11-05 09:34:38 51°17.259 2°39.127 11.5 265 11.2 102860 70
2004-11-05 09:34:42 51°17.258 2°39.128 13.1 264 11.2 102850 69
2004-11-05 09:34:48 51°17.258 2°39.129 11.9 266 11.2 102850 69
2004-11-05 09:34:52 51°17.259 2°39.13 12.7 266 11.2 102860 69
2004-11-05 09:34:58 51°17.259 2°39.132 10.7 278 11.2 102860 69
2004-11-05 09:35:02 51°17.259 2°39.135 12.5 273 11.2 102850 69
2004-11-05 09:35:08 51°17.26 2°39.138 13.3 269 11.2 102850 69
2004-11-05 09:35:12 51°17.261 2°39.139 12 274 11.2 102860 69
2004-11-05 09:35:18 51°17.263 2°39.143 12.3 274 11.2 102860 69
2004-11-05 09:35:22 51°17.264 2°39.146 13.2 271 11.2 102860 69
2004-11-05 09:35:28 51°17.267 2°39.15 10.9 273 11.2 102860 69
2004-11-05 09:35:32 51°17.268 2°39.152 9.2 283 11.2 102870 69
2004-11-05 09:35:38 51°17.271 2°39.157 10.8 279 11.2 102870 69
2004-11-05 09:35:42 51°17.273 2°39.16 11.2 280 11.2 102880 70
2004-11-05 09:35:48 51°17.277 2°39.165 12.2 283 11.2 102880 70
2004-11-05 09:35:52 51°17.279 2°39.168 11.5 291 11.2 102860 69
2004-11-05 09:35:58 51°17.283 2°39.174 12 289 11.2 102860 69
2004-11-05 09:36:02 51°17.285 2°39.177 11.4 289 11.2 102860 69
2004-11-05 09:36:08 51°17.289 2°39.183 11.5 288 11.2 102860 69
2004-11-05 09:36:24 51°17.3 2°39.199 11 294 11.2 102850 69
2004-11-05 09:36:30 51°17.304 2°39.205 11.1 292 11.2 102850 69
2004-11-05 09:36:34 51°17.307 2°39.209 13.2 286 11.2 102850 69
2004-11-05 09:36:38 51°17.309 2°39.214 10.9 287 11.2 102850 69
2004-11-05 09:36:42 51°17.312 2°39.218 12.5 288 11.2 102860 69
2004-11-05 09:36:48 51°17.316 2°39.224 10 289 11.2 102860 69
2004-11-05 09:36:54 51°17.321 2°39.231 11.7 291 11.2 102850 69
2004-11-05 09:36:58 51°17.323 2°39.236 10.5 293 11.2 102850 69
2004-11-05 09:37:04 51°17.328 2°39.242 9.9 286 11.2 102850 67
2004-11-05 09:37:08 51°17.331 2°39.247 11 288 11.2 102850 67
2004-11-05 09:37:14 51°17.335 2°39.254 10.7 288 11.1 102850 67
2004-11-05 09:37:18 51°17.338 2°39.259 9.5 287 11.1 102850 67
2004-11-05 09:37:22 51°17.341 2°39.264 10.8 288 11.1 102850 66
2004-11-05 09:37:28 51°17.345 2°39.271 10.9 293 11.1 102850 66
2004-11-05 09:37:34 51°17.349 2°39.277 11.7 292 11.1 102840 66
2004-11-05 09:37:46 51°17.358 2°39.292 9.7 294 11.1 102840 66
2004-11-05 09:37:50 51°17.361 2°39.297 10.5 292 11.2 102850 68
2004-11-05 09:37:56 51°17.366 2°39.304 11.3 291 11.2 102850 68
2004-11-05 09:37:58 51°17.367 2°39.307 10.1 291 11.2 102840 67
2004-11-05 09:38:06 51°17.374 2°39.316 12.3 294 11.2 102840 67
2004-11-05 09:38:10 51°17.376 2°39.321 12.1 286 11.2 102860 67
2004-11-05 09:38:14 51°17.379 2°39.327 11.8 289 11.2 102860 67
2004-11-05 09:38:18 51°17.383 2°39.331 11.2 286 11.2 102840 68
2004-11-05 09:38:26 51°17.389 2°39.342 10.7 285 11.2 102840 68
2004-11-05 09:38:28 51°17.39 2°39.345 9.7 287 11.2 102840 68
2004-11-05 09:38:36 51°17.397 2°39.355 10.1 289 11.2 102840 68
2004-11-05 09:38:38 51°17.399 2°39.358 11.8 291 11.2 102840 68
2004-11-05 09:38:46 51°17.406 2°39.369 11.5 294 11.2 102840 68
2004-11-05 09:38:50 51°17.409 2°39.374 10.3 287 11.2 102840 68
2004-11-05 09:38:56 51°17.415 2°39.381 12 289 11.2 102840 68
2004-11-05 09:39:00 51°17.419 2°39.386 10.4 294 11.2 102850 68
2004-11-05 09:39:06 51°17.424 2°39.393 12.1 300 11.2 102850 68
2004-11-05 09:39:10 51°17.428 2°39.398 13.7 291 11.2 102830 67
2004-11-05 09:39:16 51°17.434 2°39.405 11.5 292 11.2 102830 67
2004-11-05 09:39:20 51°17.438 2°39.41 11.9 291 11.2 102840 66
2004-11-05 09:39:26 51°17.444 2°39.416 11.8 300 11.2 102840 66
2004-11-05 09:39:28 51°17.446 2°39.418 11.9 293 11.2 102850 66
2004-11-05 09:39:48 51°17.467 2°39.436 12.9 296 11.2 102850 66
2004-11-05 09:39:50 51°17.469 2°39.438 13.7 297 11.2 102830 65
2004-11-05 09:39:58 51°17.477 2°39.446 12.1 294 11.2 102830 65
2004-11-05 09:40:02 51°17.481 2°39.449 12.7 299 11.2 102830 66
2004-11-05 09:40:08 51°17.488 2°39.453 12.9 302 11.2 102830 66
2004-11-05 09:40:10 51°17.49 2°39.456 13.2 310 11.2 102830 66
2004-11-05 09:40:18 51°17.499 2°39.461 13.3 307 11.2 102830 66
2004-11-05 09:40:22 51°17.503 2°39.465 11.9 309 11.2 102840 65
2004-11-05 09:40:28 51°17.51 2°39.469 13.3 304 11.2 102840 65
2004-11-05 09:40:32 51°17.513 2°39.471 14 305 11.2 102840 65
2004-11-05 09:40:38 51°17.519 2°39.474 12.6 293 11.2 102840 65
2004-11-05 09:40:42 51°17.522 2°39.476 11.3 303 11.2 102820 65
2004-11-05 09:40:46 51°17.525 2°39.477 11.2 296 11.2 102820 65
2004-11-05 09:40:52 51°17.529 2°39.48 10.7 293 11.2 102830 65
2004-11-05 09:40:58 51°17.532 2°39.482 12.7 299 11.2 102830 65
2004-11-05 09:41:02 51°17.534 2°39.484 12.1 302 11.2 102830 64
2004-11-05 09:41:08 51°17.536 2°39.486 10.5 292 11.2 102830 64
2004-11-05 09:41:12 51°17.538 2°39.488 10.4 293 11.2 102840 65
2004-11-05 09:41:18 51°17.539 2°39.49 9.7 282 11.2 102840 65
2004-11-05 09:41:24 51°17.54 2°39.492 9.5 282 11.2 102840 66
2004-11-05 09:41:28 51°17.541 2°39.493 11.2 289 11.2 102840 66
2004-11-05 09:41:32 51°17.542 2°39.493 10.2 279 11.2 102850 66
2004-11-05 09:41:36 51°17.542 2°39.494 11.5 291 11.2 102850 66
2004-11-05 09:41:42 51°17.543 2°39.495 10.6 291 11.2 102830 67
2004-11-05 09:41:48 51°17.543 2°39.496 9.7 285 11.2 102830 67
2004-11-05 09:41:52 51°17.543 2°39.497 10.5 285 11.3 102850 68
2004-11-05 09:41:58 51°17.543 2°39.498 11.3 290 11.3 102850 68
2004-11-05 09:42:02 51°17.542 2°39.5 12.4 289 11.2 102850 67
2004-11-05 09:42:08 51°17.541 2°39.5 10.5 276 11.2 102850 67
2004-11-05 09:42:12 51°17.541 2°39.5 9.6 283 11.2 102830 67
2004-11-05 09:42:17 51°17.541 2°39.501 9.8 287 11.2 102830 67
2004-11-05 09:42:22 51°17.541 2°39.501 10.1 280 11.3 102830 67
2004-11-05 09:42:28 51°17.54 2°39.502 10.3 278 11.3 102830 67
2004-11-05 09:42:32 51°17.539 2°39.503 13.4 270 11.3 102840 68
2004-11-05 09:42:38 51°17.539 2°39.504 13.6 274 11.3 102840 68
2004-11-05 09:42:42 51°17.538 2°39.504 11.6 276 11.3 102850 69
2004-11-05 09:42:46 51°17.538 2°39.504 10.1 277 11.3 102850 69
2004-11-05 09:42:52 51°17.537 2°39.505 12.3 276 11.3 102840 68
2004-11-05 09:42:56 51°17.537 2°39.506 12.5 276 11.3 102840 68
2004-11-05 09:43:02 51°17.536 2°39.507 11.4 276 11.3 102840 66
2004-11-05 09:43:06 51°17.536 2°39.507 10.8 277 11.3 102840 66
2004-11-05 09:43:12 51°17.536 2°39.507 9 282 11.2 102840 65
2004-11-05 09:43:16 51°17.535 2°39.508 10.4 277 11.2 102840 65
2004-11-05 09:43:20 51°17.535 2°39.508 9.9 282 11.2 102840 65
2004-11-05 09:43:32 51°17.534 2°39.51 8.8 279 11.2 102840 65
2004-11-05 09:43:34 51°17.534 2°39.51 10.8 275 11.2 102840 65
2004-11-05 09:43:40 51°17.533 2°39.51 10.3 282 11.2 102850 66
2004-11-05 09:43:46 51°17.532 2°39.511 11.3 275 11.2 102850 66
2004-11-05 09:43:52 51°17.532 2°39.512 13.1 270 11.2 102850 67
2004-11-05 09:43:56 51°17.531 2°39.513 12.5 273 11.2 102850 67
2004-11-05 09:44:02 51°17.53 2°39.514 13.3 272 11.2 102850 68
2004-11-05 09:44:06 51°17.53 2°39.514 13.6 278 11.2 102850 68
2004-11-05 09:44:28 51°17.526 2°39.516 11 269 11.2 102850 68
2004-11-05 09:44:32 51°17.526 2°39.516 12.9 272 11.2 102840 66
2004-11-05 09:44:38 51°17.525 2°39.518 11.8 266 11.2 102840 66
2004-11-05 09:44:44 51°17.524 2°39.517 11.5 269 11.2 102850 66
2004-11-05 09:44:48 51°17.524 2°39.518 11.5 268 11.2 102850 66
2004-11-05 09:44:52 51°17.523 2°39.518 11.3 273 11.2 102840 66
2004-11-05 09:44:58 51°17.522 2°39.519 11.2 273 11.2 102840 66
2004-11-05 09:45:04 51°17.522 2°39.519 11.6 274 11.2 102850 65
2004-11-05 09:45:08 51°17.521 2°39.519 11.8 272 11.2 102850 65
2004-11-05 09:45:12 51°17.521 2°39.52 12.6 277 11.2 102850 64
2004-11-05 09:45:28 51°17.519 2°39.521 12.1 266 11.2 102850 64
2004-11-05 09:45:32 51°17.518 2°39.521 13.9 268 11.1 102850 64
2004-11-05 09:45:38 51°17.518 2°39.521 11.2 275 11.1 102850 64
2004-11-05 09:45:42 51°17.517 2°39.522 12.1 274 11.1 102850 65
2004-11-05 09:45:46 51°17.516 2°39.522 11.4 272 11.1 102850 65
2004-11-05 09:45:52 51°17.515 2°39.522 10.4 271 11.1 102850 64
2004-11-05 09:45:58 51°17.514 2°39.522 11.1 262 11.1 102850 64
2004-11-05 09:46:02 51°17.514 2°39.522 13.7 267 11.1 102840 63
2004-11-05 09:46:08 51°17.513 2°39.522 10.9 263 11.1 102840 63
2004-11-05 09:46:12 51°17.512 2°39.522 11.5 261 11.1 102840 64
2004-11-05 09:46:18 51°17.512 2°39.523 11.6 266 11.1 102840 64
2004-11-05 09:46:24 51°17.511 2°39.523 12 271 11.1 102850 65
2004-11-05 09:46:26 51°17.51 2°39.524 14 266 11.1 102850 65
2004-11-05 09:46:32 51°17.509 2°39.524 9.6 264 11.1 102850 63
2004-11-05 09:46:38 51°17.508 2°39.524 11.6 271 11.1 102850 63
2004-11-05 09:46:42 51°17.508 2°39.525 11.9 272 11.1 102850 63